#timestamp,LO_Frequency,Hit,StdDev 
1668477615.6,286046998.3,N
1668477635.4,286047001.1,N
1668477655.3,286047000.8,N
1668477675.1,286047001.2,N
1668477695.9,286046999.6,N
1668477715.7,286046999.2,N
1668477735.5,286046998.5,N
1668477755.4,286046998.3,N
1668477775.2,286047000.2,N
1668477795.0,286047001.2,N
1668477795.9,286047001.2,N
1668477815.8,286046999.5,N
1668477835.6,286046999.2,N
1668477855.5,286046998.5,N
1668477875.3,286046996.5,N
1668477895.1,286046998.5,N
1668477915.9,286047000.1,N
1668477935.7,286047000.8,N
1668477955.6,286047000.4,N
1668477975.4,286047000.1,N
1668477995.2,286046999.4,N
1668478015.1,286046999.6,N
1668478016.0,286046999.6,N
1668478035.8,286046999.3,N
1668478055.7,286046998.0,N
1668478075.5,286046995.3,Y
1668478095.3,286046995.7,P
1668478115.2,286046995.9,N
1668478135.0,286046994.9,P
1668478135.9,286046994.9,N
1668478155.7,286046995.3,N
1668478175.6,286046997.6,N
1668478195.4,286046995.6,N
1668478215.3,286046996.4,N
1668478235.1,286046995.8,Y
1668478236.0,286046995.8,P
1668478255.8,286046997.3,P
1668478275.7,286046997.9,P
1668478295.5,286046998.1,N
1668478315.3,286046999.8,N
1668478335.2,286047002.0,N
1668478355.0,286047000.2,N
1668478355.9,286047000.2,N
1668478375.8,286046998.1,N
1668478395.6,286047001.9,N
1668478415.4,286047001.6,N
1668478435.3,286047002.2,N
1668478455.1,286047000.4,N
1668478475.9,286047002.4,N
1668478495.7,286047002.6,N
1668478515.5,286047004.2,N
1668478535.4,286047001.4,N
1668478555.2,286047005.6,N
1668478605.1,286047006.5,E
1668478615.9,286047001.3,N
1668478665.8,286046995.5,E
1668478675.7,286046996.6,N
1668478695.5,286047000.9,P
1668478715.4,286047000.9,N
1668478735.2,286047000.7,N
1668478755.0,286047000.8,N
1668478756.0,286047000.8,N
1668478775.8,286047000.1,N
1668478795.6,286046999.7,N
1668478815.5,286047000.6,N
1668478835.3,286047000.5,N
1668478855.1,286046999.9,N
1668478875.9,286047004.2,Y
1668478895.7,286047003.2,P
1668478915.6,286047002.1,N
1668478935.4,286046999.7,N
1668478955.2,286047002.8,N
1668478975.1,286047002.2,N
1668478976.0,286047002.2,N
1668478995.8,286047004.3,Y
1668479015.7,286047002.2,P
1668479035.5,286047002.6,P
1668479055.3,286047001.9,P
1668479075.2,286046999.9,N
1668479095.0,286046999.7,N
1668479095.9,286046999.7,N
1668479115.8,286046998.4,N
1668479135.6,286046998.8,N
1668479155.4,286046999.5,N
1668479175.3,286046997.3,N
1668479195.1,286046997.2,N
1668479215.8,286046997.4,N
1668479235.7,286046998.8,N
1668479255.5,286047001.2,N
1668479275.3,286046999.1,N
1668479295.2,286046997.6,N
1668479315.0,286046999.5,N
1668479315.9,286046999.5,N
1668479335.8,286046998.3,N
1668479355.6,286047001.1,N
1668479375.4,286047000.3,N
1668479395.3,286047000.1,N
1668479415.1,286047002.8,N
1668479435.8,286046999.9,N
1668479455.7,286047000.3,N
1668479475.5,286047000.2,N
1668479495.4,286047002.8,N
1668479515.2,286046999.7,N
1668479535.1,286047000.3,N
1668479536.0,286047000.3,N
1668479555.8,286047000.5,N
1668479575.6,286047002.5,N
1668479595.5,286047002.6,N
1668479615.3,286047002.5,N
1668479635.2,286047002.4,N
1668479655.9,286047001.7,N
1668479675.7,286047001.4,N
1668479695.6,286047002.5,N
1668479715.4,286047001.4,N
1668479735.2,286047001.9,N
1668479755.1,286046999.8,N
1668479756.0,286046999.8,N
1668479775.8,286047001.8,N
1668479795.7,286047002.2,N
1668479815.5,286047002.2,N
1668479835.3,286047000.4,N
1668479855.2,286047002.4,N
1668479875.0,286047000.6,N
1668479875.9,286047000.6,N
1668479895.8,286047002.8,N
1668479915.6,286047002.6,N
1668479935.4,286047001.9,N
1668479955.3,286047005.8,Y
1668479975.1,286046998.8,P
1668479995.8,286046996.8,N
1668480015.7,286046996.5,N
1668480035.5,286046997.7,N
1668480055.4,286046998.5,N
1668480075.2,286046998.6,N
1668480095.0,286046998.9,N
1668480095.9,286046998.9,N
1668480115.8,286047000.6,N
1668480135.6,286047000.9,N
1668480155.5,286047002.5,N
1668480175.3,286047000.6,N
1668480195.1,286047001.1,N
1668480215.9,286046996.6,N
1668480235.7,286046995.1,N
1668480255.5,286046998.0,N
1668480275.4,286046999.4,N
1668480295.2,286046999.0,N
1668480315.1,286046996.5,N
1668480316.0,286046996.5,N
1668480335.8,286046999.6,N
1668480355.6,286046999.2,N
1668480375.5,286046998.6,N
1668480395.3,286047000.6,N
1668480415.2,286047001.0,N
1668480435.9,286046998.4,N
1668480455.7,286046998.6,N
1668480475.6,286046998.4,N
1668480495.4,286046999.0,N
1668480515.2,286046996.9,N
1668480535.1,286046998.3,N
1668480536.0,286046998.3,N
1668480555.8,286047000.8,N
1668480575.7,286047000.5,N
1668480595.5,286047000.4,N
1668480615.3,286047000.1,N
1668480635.2,286047001.6,N
1668480655.0,286046998.2,N
1668480655.9,286046998.2,N
1668480675.8,286046996.7,N
1668480695.6,286046995.4,N
1668480715.4,286046996.8,N
1668480735.3,286046998.0,N
1668480755.1,286046997.7,N
1668480775.8,286046995.2,N
1668480795.7,286046996.8,N
1668480815.5,286047001.2,N
1668480835.4,286046999.9,N
1668480855.2,286047001.5,N
1668480875.0,286047004.4,N
1668480875.9,286047004.4,N
1668480895.8,286047004.0,N
1668480915.6,286047000.1,N
1668480935.5,286046999.0,N
1668480955.3,286046997.3,N
1668480975.1,286046997.3,N
1668480995.9,286046998.7,N
1668481015.7,286046995.3,N
1668481035.6,286046997.0,N
1668481055.4,286046999.4,N
1668481075.2,286047000.7,N
1668481095.1,286046998.5,N
1668481096.0,286046998.5,N
1668481115.8,286046998.0,N
1668481135.6,286046997.5,N
1668481155.5,286046997.1,N
1668481175.3,286046995.1,N
1668481195.2,286046995.0,N
